Location: Newark
(25.4800°N, 85.7200°E)
Time: 08:03:58
(UTC+00:00)

Transit 4A - Pass Details

Date: 02 September 2019
Orbit: 865 x 980 km, 66.8° (Epoch: 15 September)

Event Time Altitude Azimuth Distance (km) Brightness Sun altitude
Rises 10:47:23 0° 250° (WSW) 3,662 12.2 23.6°
Reaches altitude 10° 10:51:21 10° 274° (W) 2,725 12.4 22.7°
Maximum altitude 10:54:36 14° 305° (NW) 2,429 11.1 21.9°
Drops below altitude 10° 10:57:51 10° 336° (NNW) 2,727 10.7 21.2°
Sets 11:01:52 0° 0° (N) 3,667 11.0 20.3°
